Greenville, ME

5:08 AM EDT on April 26, 2018 (GMT -0400)
Greenville

Weather History for KGNR - August, 2013

Change the Weather History Date:

Friday, August 16, 2013

  Actual Average (KMLT) Record (KMLT)
Temperature  
Mean Temperature 62 °F -  
Max Temperature 71 °F 76 °F 97 °F (1944)
Min Temperature 53 °F 56 °F 37 °F (1934)
Degree Days  
Heating Degree Days 3    
Growing Degree Days 12 (Base 50)    
Moisture  
Dew Point 53 °F    
Average Humidity 78    
Maximum Humidity 93    
Minimum Humidity 47    
Precipitation  
Precipitation 0.31 in - - ()
Sea Level Pressure  
Sea Level Pressure 30.11 in    
Wind  
Wind Speed 1 mph (SW)    
Max Wind Speed 10 mph    
Max Gust Speed 18 mph    
Averages and records for this station are not official NWS values.
T = Trace of Precipitation, MM = Missing Value Source: NWS Daily Summary

Daily Weather History Graph

Daily Weather History Graph

Search for Another Location

Airport or City:

Astronomy

Aug. 16, 2013 Rise Set
Actual Time 5:40 AM EDT 7:43 PM EDT
Civil Twilight 5:08 AM EDT 8:15 PM EDT
Nautical Twilight 4:28 AM EDT 8:55 PM EDT
Astronomical Twilight 3:44 AM EDT 9:38 PM EDT
Moon 4:05 PM EDT (8/16) 12:34 AM EDT (8/16)
Length of Visible Light 15h 07m
Length of Day
14h 03m
Waxing Gibbous, 74% of the Moon is Illuminated
Aug 16
Waxing Gibbous
Aug 20
Full
Aug 28
Last Quarter
Sep 5
New
Sep 12
First Quarter

Hourly Weather History & Observations

Time (EDT) Temp. Dew Point Humidity Pressure Visibility Wind Dir Wind Speed Gust Speed Precip Events Conditions
12:56 AM 55.9 °F 48.0 °F 75% 30.06 in - Calm Calm - N/A   Unknown
1:56 AM 57.0 °F 48.0 °F 72% 30.06 in - Calm Calm - N/A   Unknown
2:56 AM 55.9 °F 48.0 °F 75% 30.06 in - Calm Calm - N/A   Unknown
3:56 AM 53.1 °F 46.9 °F 80% 30.06 in - Calm Calm - N/A   Unknown
4:56 AM 53.1 °F 48.0 °F 83% 30.07 in - Calm Calm - N/A   Unknown
5:56 AM 53.1 °F 46.9 °F 80% 30.09 in - Calm Calm - N/A   Unknown
6:56 AM 57.0 °F 48.9 °F 74% 30.10 in - Calm Calm - N/A   Unknown
7:56 AM 61.0 °F 50.0 °F 67% 30.11 in - Calm Calm - N/A   Unknown
8:56 AM 63.0 °F 50.0 °F 63% 30.11 in - Calm Calm - N/A   Unknown
9:56 AM 64.9 °F 51.1 °F 61% 30.11 in - South 3.5 mph - N/A   Unknown
10:56 AM 69.1 °F 51.1 °F 53% 30.10 in - Calm Calm - N/A   Unknown
11:56 AM 71.1 °F 50.0 °F 47% 30.09 in - Variable 6.9 mph - N/A   Unknown
12:56 PM 59.0 °F 55.9 °F 90% 30.12 in - NW 10.4 mph 18.4 mph 0.05 in   Unknown
1:56 PM 66.0 °F 55.0 °F 68% 30.10 in - Calm Calm - 0.07 in   Unknown
2:56 PM 64.9 °F 55.9 °F 73% 30.12 in - Calm Calm - N/A   Unknown
3:56 PM 62.1 °F 57.9 °F 86% 30.12 in - Calm Calm - 0.06 in   Unknown
4:56 PM 61.0 °F 57.9 °F 90% 30.13 in - South 3.5 mph - 0.13 in   Unknown
5:56 PM 62.1 °F 59.0 °F 90% 30.13 in - North 5.8 mph - N/A   Unknown
6:56 PM 61.0 °F 57.0 °F 87% 30.14 in - Calm Calm - N/A   Unknown
7:56 PM 59.0 °F 57.0 °F 93% 30.15 in - Calm Calm - N/A   Unknown
8:56 PM 57.0 °F 55.0 °F 93% 30.17 in - Calm Calm - N/A   Unknown
9:56 PM 59.0 °F 57.0 °F 93% 30.17 in - Calm Calm - N/A   Unknown
10:56 PM 57.9 °F 55.0 °F 90% 30.19 in - Calm Calm - N/A   Unknown
11:56 PM 55.9 °F 54.0 °F 93% 30.18 in - Calm Calm - N/A   Unknown